TimeCST,TemperatureF,Dew PointF,Humidity,Sea Level PressureIn,VisibilityMPH,Wind Direction,Wind SpeedMPH,Gust SpeedMPH,PrecipitationIn,Events,Conditions,WindDirDegrees,DateUTC
12:15 AM,5.0,1.4,85,30.03,10.0,West,10.4,-,N/A,,Scattered Clouds,280,2013-12-09 06:15:00
12:35 AM,5.0,-0.4,78,30.03,10.0,WNW,9.2,-,N/A,,Clear,290,2013-12-09 06:35:00
12:55 AM,5.0,1.4,85,30.02,10.0,WNW,11.5,-,N/A,,Clear,300,2013-12-09 06:55:00
1:15 AM,3.2,-2.2,78,30.02,10.0,WNW,8.1,-,N/A,,Clear,290,2013-12-09 07:15:00
1:35 AM,3.2,-2.2,78,30.01,10.0,WNW,10.4,-,N/A,,Clear,290,2013-12-09 07:35:00
1:55 AM,3.2,-2.2,78,30.02,10.0,WNW,11.5,-,N/A,,Clear,290,2013-12-09 07:55:00
2:15 AM,1.4,-4.0,78,30.02,10.0,WNW,9.2,-,N/A,,Clear,290,2013-12-09 08:15:00
2:35 AM,-2.2,-7.6,78,30.03,10.0,WNW,10.4,-,N/A,,Mostly Cloudy,290,2013-12-09 08:35:00
2:55 AM,-0.4,-4.0,85,30.02,10.0,WNW,11.5,-,N/A,,Overcast,290,2013-12-09 08:55:00
3:15 AM,-0.4,-4.0,85,30.04,10.0,West,9.2,-,N/A,,Mostly Cloudy,280,2013-12-09 09:15:00
3:35 AM,-0.4,-4.0,85,30.03,10.0,West,15.0,-,N/A,,Mostly Cloudy,280,2013-12-09 09:35:00
3:55 AM,-0.4,-5.8,78,30.03,10.0,WNW,12.7,-,N/A,,Scattered Clouds,290,2013-12-09 09:55:00
4:15 AM,-2.2,-5.8,85,30.03,10.0,West,10.4,-,N/A,,Clear,270,2013-12-09 10:15:00
4:35 AM,-0.4,-5.8,78,30.03,10.0,West,13.8,-,N/A,,Partly Cloudy,270,2013-12-09 10:35:00
4:55 AM,-2.2,-7.6,78,30.04,10.0,West,12.7,-,N/A,,Partly Cloudy,280,2013-12-09 10:55:00
5:15 AM,-2.2,-7.6,78,30.04,8.0,West,16.1,-,N/A,,Scattered Clouds,280,2013-12-09 11:15:00
5:35 AM,-2.2,-7.6,78,30.05,10.0,West,18.4,-,N/A,,Scattered Clouds,280,2013-12-09 11:35:00
5:55 AM,-4.0,-9.4,78,30.06,10.0,West,15.0,-,N/A,,Clear,280,2013-12-09 11:55:00
6:15 AM,-4.0,-11.2,71,30.08,10.0,West,15.0,-,N/A,,Clear,280,2013-12-09 12:15:00
6:35 AM,-4.0,-11.2,71,30.08,10.0,West,17.3,-,N/A,,Clear,270,2013-12-09 12:35:00
6:55 AM,-5.8,-13.0,71,30.10,10.0,West,13.8,-,N/A,,Clear,260,2013-12-09 12:55:00
7:15 AM,-5.8,-13.0,71,30.11,10.0,West,12.7,-,N/A,,Clear,260,2013-12-09 13:15:00
7:35 AM,-7.6,-14.8,71,30.12,10.0,West,12.7,-,N/A,,Clear,260,2013-12-09 13:35:00
7:55 AM,-7.6,-14.8,71,30.12,10.0,West,12.7,-,N/A,,Clear,270,2013-12-09 13:55:00
8:15 AM,-7.6,-14.8,71,30.13,8.0,West,13.8,-,N/A,,Clear,270,2013-12-09 14:15:00
8:35 AM,-5.8,-13.0,71,30.14,10.0,WNW,13.8,-,N/A,,Clear,290,2013-12-09 14:35:00
8:55 AM,-5.8,-13.0,71,30.15,10.0,West,15.0,-,N/A,,Clear,280,2013-12-09 14:55:00
9:15 AM,-5.8,-13.0,71,30.16,10.0,West,15.0,-,N/A,,Clear,280,2013-12-09 15:15:00
9:35 AM,-4.0,-13.0,65,30.16,10.0,West,16.1,-,N/A,,Clear,280,2013-12-09 15:35:00
9:55 AM,-4.0,-13.0,65,30.16,10.0,West,20.7,-,N/A,,Clear,280,2013-12-09 15:55:00
10:15 AM,-2.2,-11.2,66,30.16,9.0,West,18.4,-,N/A,,Clear,280,2013-12-09 16:15:00
10:35 AM,-2.2,-11.2,66,30.16,9.0,West,23.0,-,N/A,,Clear,280,2013-12-09 16:35:00
10:55 AM,-2.2,-11.2,66,30.16,9.0,WNW,19.6,-,N/A,,Clear,290,2013-12-09 16:55:00
11:15 AM,-0.4,-9.4,66,30.17,9.0,West,17.3,24.2,N/A,,Clear,280,2013-12-09 17:15:00
11:35 AM,-0.4,-9.4,66,30.16,7.0,West,20.7,-,N/A,,Clear,280,2013-12-09 17:35:00
11:55 AM,-0.4,-9.4,66,30.16,10.0,West,20.7,-,N/A,,Clear,280,2013-12-09 17:55:00
12:15 PM,1.4,-9.4,61,30.15,9.0,West,17.3,-,N/A,,Clear,270,2013-12-09 18:15:00
12:35 PM,1.4,-7.6,66,30.15,9.0,West,18.4,-,N/A,,Clear,280,2013-12-09 18:35:00
12:55 PM,3.2,-7.6,61,30.15,10.0,West,16.1,23.0,N/A,,Clear,270,2013-12-09 18:55:00
1:15 PM,3.2,-7.6,61,30.16,10.0,West,16.1,-,N/A,,Clear,280,2013-12-09 19:15:00
1:35 PM,3.2,-7.6,61,30.16,10.0,West,18.4,-,N/A,,Partly Cloudy,270,2013-12-09 19:35:00
1:55 PM,3.2,-7.6,61,30.16,10.0,West,17.3,-,N/A,,Clear,260,2013-12-09 19:55:00
2:15 PM,3.2,-7.6,61,30.16,10.0,WSW,13.8,-,N/A,,Clear,250,2013-12-09 20:15:00
2:35 PM,3.2,-7.6,61,30.15,10.0,West,15.0,-,N/A,,Clear,260,2013-12-09 20:35:00
2:55 PM,3.2,-7.6,61,30.14,10.0,West,10.4,-,N/A,,Clear,260,2013-12-09 20:55:00
3:15 PM,3.2,-7.6,61,30.14,10.0,WSW,11.5,-,N/A,,Clear,250,2013-12-09 21:15:00
3:35 PM,3.2,-7.6,61,30.14,10.0,WSW,11.5,-,N/A,,Clear,240,2013-12-09 21:35:00
3:55 PM,3.2,-7.6,61,30.13,10.0,WSW,9.2,-,N/A,,Clear,240,2013-12-09 21:55:00
4:15 PM,1.4,-7.6,66,30.12,10.0,SW,11.5,-,N/A,,Clear,230,2013-12-09 22:15:00
4:35 PM,1.4,-7.6,66,30.11,10.0,SW,11.5,-,N/A,,Clear,220,2013-12-09 22:35:00
4:55 PM,-0.4,-9.4,66,30.13,10.0,SW,12.7,-,N/A,,Clear,220,2013-12-09 22:55:00
5:15 PM,-0.4,-9.4,66,30.13,10.0,SW,8.1,-,N/A,,Clear,220,2013-12-09 23:15:00
5:35 PM,-2.2,-11.2,66,30.12,10.0,SSW,10.4,-,N/A,,Clear,210,2013-12-09 23:35:00
5:55 PM,-4.0,-11.2,71,30.11,10.0,SSW,9.2,-,N/A,,Clear,200,2013-12-09 23:55:00
6:15 PM,-4.0,-11.2,71,30.10,10.0,SSW,10.4,-,N/A,,Clear,200,2013-12-10 00:15:00
6:35 PM,-5.8,-13.0,71,30.09,10.0,South,10.4,-,N/A,,Clear,190,2013-12-10 00:35:00
6:55 PM,-4.0,-11.2,71,30.08,10.0,South,12.7,-,N/A,,Clear,190,2013-12-10 00:55:00
7:15 PM,-4.0,-11.2,71,30.07,10.0,SSW,12.7,-,N/A,,Clear,200,2013-12-10 01:15:00
7:35 PM,-4.0,-11.2,71,30.05,10.0,South,11.5,-,N/A,,Clear,190,2013-12-10 01:35:00
7:55 PM,-4.0,-11.2,71,30.05,10.0,South,11.5,-,N/A,,Clear,190,2013-12-10 01:55:00
8:15 PM,-4.0,-11.2,71,30.04,10.0,South,10.4,-,N/A,,Clear,180,2013-12-10 02:15:00
8:35 PM,-2.2,-7.6,78,30.03,10.0,South,12.7,-,N/A,,Clear,180,2013-12-10 02:35:00
8:55 PM,-0.4,-7.6,72,30.01,10.0,South,15.0,-,N/A,,Scattered Clouds,180,2013-12-10 02:55:00
9:15 PM,-0.4,-5.8,78,30.00,10.0,South,18.4,-,N/A,,Mostly Cloudy,180,2013-12-10 03:15:00
9:35 PM,1.4,-5.8,72,29.98,10.0,South,16.1,-,N/A,,Overcast,180,2013-12-10 03:35:00
9:55 PM,1.4,-5.8,72,29.96,10.0,South,15.0,-,N/A,,Overcast,180,2013-12-10 03:55:00
10:15 PM,3.2,-4.0,72,29.95,10.0,South,18.4,-,N/A,,Overcast,190,2013-12-10 04:15:00
10:35 PM,3.2,-4.0,72,29.93,10.0,South,16.1,-,N/A,,Overcast,180,2013-12-10 04:35:00
10:55 PM,5.0,-2.2,72,29.92,10.0,South,17.3,-,N/A,,Overcast,180,2013-12-10 04:55:00
11:15 PM,8.6,-0.4,67,29.90,10.0,SSW,18.4,27.6,N/A,,Overcast,200,2013-12-10 05:15:00
11:35 PM,8.6,1.4,73,29.90,10.0,SSW,19.6,-,N/A,,Overcast,210,2013-12-10 05:35:00
11:55 PM,10.4,1.4,67,29.89,10.0,SSW,21.9,-,N/A,,Overcast,210,2013-12-10 05:55:00